Simultaneous Nadir Overpasses (SNOs) Predictions

Prediction of SNOs between FY3D and AQUA Satellite Orbit:

Table of predicted SNOs for the next 14.0 days since TLE Epoch: 9/21/2024
Index Date (FY3D) Time (FY3D) Lat,Lon (FY3D) SZA (FY3D ) Date (AQUA) Time (AQUA) Lat,Lon (AQUA) SZA (AQUA ) Distance(km) Time Diff (sec)
1 09/21/2024 23:13:33 79.45, 174.54 79.55 09/21/2024 23:13:48 79.46, 174.40 79.57 3.02 15
2 09/22/2024 00:04:11 -79.22, -16.25 100.75 09/22/2024 00:03:02 -79.23, -16.34 100.73 1.87 69
3 09/24/2024 10:26:17 79.51, 5.92 80.58 09/24/2024 10:26:48 79.51, 5.83 80.58 1.85 31
4 09/24/2024 11:16:55 -79.28, 175.18 99.72 09/24/2024 11:16:02 -79.28, 175.12 99.71 1.10 53
5 09/26/2024 21:39:02 79.61,-163.08 81.66 09/26/2024 21:39:47 79.60,-162.98 81.64 2.15 45
6 09/26/2024 22:29:41 -79.41, 5.98 98.60 09/26/2024 22:29:02 -79.40, 6.10 98.61 2.56 39
7 09/29/2024 08:51:45 79.65, 28.40 82.67 09/29/2024 08:52:43 79.64, 28.52 82.64 2.49 58
8 09/29/2024 09:42:24 -79.45,-162.50 97.60 09/29/2024 09:41:58 -79.44,-162.37 97.61 2.65 26
9 10/01/2024 20:04:25 79.64,-139.63 83.60 10/01/2024 20:05:35 79.64,-139.66 83.59 0.86 70
10 10/01/2024 20:55:03 -79.41, 29.77 96.72 10/01/2024 20:54:49 -79.41, 29.73 96.71 0.86 14



Historial Predications of SNOs between FY3D and AQUA
